• In Uzbekistan
  • List of Countries
  • For 7 days
  • Water Temperature
  • Satellite Maps
  • Weather Map
  • Weather Widgets
  • user-avatar
    Login

    Hourly Weather Gjirokaster

    Today, 29 March, Wednesday

    Time Temperature Precipitation Wind Pressure Humidity
    00:00 +1°C° 0 mm 2 mps 652 mmHg 68%
    01:00 +1°C° 0 mm 2 mps 652 mmHg 67%
    02:00 +1°C° 0 mm 2 mps 652 mmHg 66%
    03:00 +1°C° 0 mm 2 mps 652 mmHg 65%
    04:00 -1°C° 0 mm 2 mps 652 mmHg 65%
    05:00 +2°C° 0 mm 2 mps 652 mmHg 63%
    06:00 +3°C° 0 mm 2 mps 652 mmHg 61%
    07:00 +4°C° 0 mm 2 mps 653 mmHg 58%
    08:00 +6°C° 0 mm 2 mps 653 mmHg 51%
    09:00 +9°C° 0 mm 1 mps 654 mmHg 44%
    10:00 +12°C° 0 mm 1 mps 654 mmHg 36%
    11:00 +12°C° 0 mm 2 mps 654 mmHg 35%
    12:00 +13°C° 0 mm 2 mps 654 mmHg 33%
    13:00 +12°C° 0 mm 3 mps 654 mmHg 32%
    14:00 +12°C° 0 mm 3 mps 654 mmHg 35%
    15:00 +12°C° 0 mm 3 mps 654 mmHg 37%
    16:00 +11°C° 0 mm 3 mps 653 mmHg 40%
    17:00 +9°C° 0 mm 3 mps 653 mmHg 50%
    18:00 +6°C° 0 mm 2 mps 652 mmHg 60%
    19:00 +3°C° 0 mm 2 mps 652 mmHg 70%
    20:00 +3°C° 0 mm 2 mps 652 mmHg 69%
    21:00 +3°C° 0 mm 2 mps 652 mmHg 67%
    22:00 +2°C° 0 mm 2 mps 652 mmHg 66%
    23:00 +2°C° 0 mm 2 mps 652 mmHg 64%

    Tomorrow, 30 March, Thursday

    Time Temperature Precipitation Wind Pressure Humidity
    00:00 +2°C° 0 mm 2 mps 652 mmHg 62%
    01:00 +2°C° 0 mm 2 mps 652 mmHg 59%
    02:00 +2°C° 0 mm 2 mps 652 mmHg 59%
    03:00 +2°C° 0 mm 2 mps 652 mmHg 58%
    04:00 +2°C° 0 mm 2 mps 651 mmHg 58%
    05:00 +3°C° 0 mm 2 mps 652 mmHg 57%
    06:00 +4°C° 0 mm 2 mps 652 mmHg 57%
    07:00 +5°C° 0 mm 2 mps 653 mmHg 56%
    08:00 +8°C° 0 mm 2 mps 653 mmHg 51%
    09:00 +10°C° 0 mm 2 mps 654 mmHg 46%
    10:00 +13°C° 0 mm 2 mps 654 mmHg 41%
    11:00 +14°C° 0 mm 2 mps 654 mmHg 39%
    12:00 +13°C° 0 mm 3 mps 654 mmHg 37%
    13:00 +14°C° 0 mm 3 mps 654 mmHg 36%
    14:00 +13°C° 0 mm 4 mps 654 mmHg 39%
    15:00 +13°C° 0 mm 4 mps 654 mmHg 42%
    16:00 +13°C° 0 mm 4 mps 654 mmHg 46%
    17:00 +10°C° 0 mm 4 mps 653 mmHg 54%
    18:00 +7°C° 0 mm 4 mps 653 mmHg 62%
    19:00 +5°C° 0 mm 3 mps 653 mmHg 70%
    20:00 +5°C° 0 mm 3 mps 653 mmHg 70%
    21:00 +4°C° 0 mm 3 mps 653 mmHg 70%
    22:00 +4°C° 0 mm 3 mps 653 mmHg 69%
    23:00 +4°C° 0 mm 3 mps 653 mmHg 70%

    Day after tomorrow, 31 March, Friday

    Time Temperature Precipitation Wind Pressure Humidity
    00:00 +4°C° 0 mm 2 mps 653 mmHg 71%
    01:00 +4°C° 0 mm 2 mps 653 mmHg 72%
    02:00 +4°C° 0 mm 2 mps 653 mmHg 74%
    03:00 +4°C° 0 mm 2 mps 653 mmHg 76%
    04:00 +3°C° 0 mm 2 mps 653 mmHg 78%
    05:00 +4°C° 0 mm 2 mps 653 mmHg 75%
    06:00 +5°C° 0 mm 2 mps 654 mmHg 73%
    07:00 +6°C° 0 mm 2 mps 654 mmHg 70%
    08:00 +8°C° 0 mm 2 mps 655 mmHg 63%
    09:00 +11°C° 0 mm 1 mps 655 mmHg 55%
    10:00 +13°C° 0 mm 1 mps 656 mmHg 47%
    11:00 +14°C° 0.1 mm 1 mps 656 mmHg 46%
    12:00 +14°C° 0.1 mm 2 mps 656 mmHg 45%
    13:00 +15°C° 0.1 mm 2 mps 656 mmHg 44%
    14:00 +14°C° 0.3 mm 2 mps 655 mmHg 48%
    15:00 +13°C° 0.3 mm 2 mps 655 mmHg 52%
    16:00 +12°C° 0.3 mm 2 mps 654 mmHg 57%
    17:00 +10°C° 0.3 mm 2 mps 654 mmHg 64%
    18:00 +9°C° 0.3 mm 1 mps 654 mmHg 71%
    19:00 +7°C° 0.3 mm 1 mps 654 mmHg 79%
    20:00 +7°C° 0 mm 1 mps 654 mmHg 80%
    21:00 +6°C° 0 mm 1 mps 654 mmHg 81%
    22:00 +6°C° 0 mm 1 mps 654 mmHg 82%
    23:00 +4°C° 0 mm 2 mps 654 mmHg 82%

    1 April, Saturday

    Time Temperature Precipitation Wind Pressure Humidity
    00:00 +4°C° 0 mm 2 mps 653 mmHg 82%
    01:00 +3°C° 0 mm 2 mps 653 mmHg 81%
    02:00 +3°C° 0 mm 2 mps 653 mmHg 81%
    03:00 +3°C° 0 mm 2 mps 653 mmHg 81%
    04:00 +2°C° 0 mm 2 mps 652 mmHg 81%
    05:00 +3°C° 0 mm 2 mps 653 mmHg 78%
    06:00 +4°C° 0 mm 2 mps 653 mmHg 76%
    07:00 +5°C° 0 mm 2 mps 653 mmHg 73%
    08:00 +7°C° 0 mm 2 mps 654 mmHg 65%
    09:00 +9°C° 0 mm 2 mps 654 mmHg 57%
    10:00 +12°C° 0 mm 2 mps 655 mmHg 50%
    11:00 +12°C° 0.1 mm 2 mps 654 mmHg 49%
    12:00 +13°C° 0.1 mm 2 mps 654 mmHg 48%
    13:00 +12°C° 0.1 mm 3 mps 654 mmHg 48%
    14:00 +11°C° 0.3 mm 3 mps 653 mmHg 52%
    15:00 +10°C° 0.3 mm 2 mps 653 mmHg 56%
    16:00 +10°C° 0.3 mm 2 mps 652 mmHg 60%
    17:00 +8°C° 0.4 mm 2 mps 652 mmHg 68%
    18:00 +6°C° 0.4 mm 2 mps 652 mmHg 76%
    19:00 +5°C° 0.4 mm 1 mps 652 mmHg 84%
    20:00 +4°C° 0.2 mm 2 mps 652 mmHg 84%
    21:00 +4°C° 0.2 mm 2 mps 652 mmHg 85%
    22:00 +3°C° 0.2 mm 2 mps 652 mmHg 85%
    23:00 +2°C° 0 mm 3 mps 652 mmHg 86%

    2 April, Sunday

    Time Temperature Precipitation Wind Pressure Humidity
    00:00 +2°C° 0 mm 3 mps 652 mmHg 86%
    01:00 +1°C° 0 mm 3 mps 651 mmHg 87%
    02:00 +1°C° 0 mm 3 mps 651 mmHg 87%
    03:00 +1°C° 0 mm 3 mps 651 mmHg 87%
    04:00 +1°C° 0 mm 3 mps 651 mmHg 87%
    05:00 +2°C° 0 mm 3 mps 651 mmHg 84%
    06:00 +3°C° 0 mm 3 mps 652 mmHg 80%
    07:00 +4°C° 0 mm 3 mps 652 mmHg 76%
    08:00 +7°C° 0 mm 3 mps 653 mmHg 67%
    09:00 +7°C° 0 mm 4 mps 653 mmHg 58%
    10:00 +10°C° 0 mm 4 mps 654 mmHg 50%
    11:00 +11°C° 0.1 mm 4 mps 654 mmHg 49%
    12:00 +11°C° 0.1 mm 4 mps 653 mmHg 49%
    13:00 +11°C° 0.1 mm 4 mps 653 mmHg 49%
    14:00 +11°C° 0.3 mm 4 mps 653 mmHg 54%
    15:00 +10°C° 0.3 mm 4 mps 653 mmHg 59%
    16:00 +8°C° 0.3 mm 4 mps 652 mmHg 64%
    17:00 +7°C° 0.1 mm 4 mps 652 mmHg 70%
    18:00 +5°C° 0.1 mm 3 mps 652 mmHg 77%
    19:00 +4°C° 0.1 mm 3 mps 651 mmHg 83%
    20:00 +3°C° 0.2 mm 3 mps 651 mmHg 83%
    21:00 +3°C° 0.2 mm 3 mps 651 mmHg 82%
    22:00 +3°C° 0.2 mm 3 mps 651 mmHg 82%
    23:00 +3°C° 0.4 mm 3 mps 651 mmHg 83%

    3 April, Monday

    Time Temperature Precipitation Wind Pressure Humidity
    00:00 +3°C° 0.4 mm 3 mps 651 mmHg 85%
    01:00 +2°C° 0.4 mm 3 mps 651 mmHg 86%
    02:00 +2°C° 0.3 mm 3 mps 650 mmHg 86%
    03:00 +2°C° 0.3 mm 3 mps 650 mmHg 86%
    04:00 +2°C° 0.3 mm 3 mps 650 mmHg 86%
    05:00 +2°C° 0.1 mm 3 mps 650 mmHg 83%
    06:00 +1°C° 0.1 mm 4 mps 650 mmHg 81%
    07:00 +1°C° 0.1 mm 4 mps 650 mmHg 78%
    08:00 +3°C° 0.1 mm 4 mps 650 mmHg 72%
    09:00 +4°C° 0.1 mm 3 mps 651 mmHg 67%
    10:00 +7°C° 0.1 mm 3 mps 651 mmHg 61%
    11:00 +7°C° 0.3 mm 3 mps 651 mmHg 61%
    12:00 +7°C° 0.3 mm 3 mps 651 mmHg 62%
    13:00 +7°C° 0.3 mm 3 mps 651 mmHg 63%
    14:00 +7°C° 0.6 mm 3 mps 650 mmHg 69%
    15:00 +5°C° 0.6 mm 3 mps 650 mmHg 75%
    16:00 +5°C° 0.6 mm 2 mps 650 mmHg 81%
    17:00 +5°C° 0.4 mm 2 mps 650 mmHg 84%
    18:00 +4°C° 0.4 mm 2 mps 650 mmHg 87%
    19:00 +4°C° 0.4 mm 2 mps 650 mmHg 90%
    20:00 +3°C° 0.2 mm 2 mps 650 mmHg 90%
    21:00 +3°C° 0.2 mm 2 mps 650 mmHg 91%
    22:00 +2°C° 0.2 mm 2 mps 649 mmHg 91%
    23:00 +2°C° 0.1 mm 2 mps 649 mmHg 91%
    Show more